map of OSS home
OSS - Airport
Location
City:  Osh, Osh, Kyrgyzstan
Name:Osh International Airport
ICAO:UCFO
IATA:OSS

Details
Type:Airport (Aerodrome, Airfield)
Use:Public/Civil, International (customs port of entry)
Latitude:4036'32"N (40.608997)
Longitude:7247'36"E (72.793214)
Elevation:2928 ft (892 m)
Variation:4.75E (WMM2015 magnetic declination)
0.05 annual change
Runways:1
Longest:9232 × 148 ft (2814 × 45 m), paved

Time
Time Zone:UTC+6
Local Time:

Weather
METAR:UCFO 230830Z 29002MPS 180V350 9999 FEW050 35/11 Q1006 R12/CLRD70 NOSIG
TAF:UCFO 230441Z 2306/2406 27003G08MPS 6000 SCT050CB BKN100
TEMPO 2306/2312 VRB17G22MPS 0500 +TSRA BLDU SCT003 BKN015CB
TEMPO 2312/2318 VRB15G20MPS 0500 +TSRA SQ SCT003 BKN015CB

Related Locations
Nearby:
Farthest:IPC: 11495 mi / 18499 km
Easter Island (Isla de Pascua, Rapa Nui) [Mataveri Intl], VS, CL

Find:

   beyond  
but within

Other Information
Maps:
NOTAMs:
Links:
Sources:

  
flag of Kyrgyzstan
flag of Osh
  

Sectional Chart

Flight Planning
at skyvector.com

Satellite Image

Google Maps Satellite view

 

Copyright © 2004-2017 Karl L. Swartz. All rights reserved.
The Great Circle Mapper name and logo are trademarks of the Great Circle Mapper.
All other trademarks mentioned herein belong to their respective owners.
Please see credits for attibutions and further copyright information.

  Follow gcmap on Facebook Follow gcmap on Twitter Follow gcmap on Google+ GCmap on LinkedIn

hCard Microformat

Geo Microformat